Location: Sungai Bunut
(2.6333°N, 113.7333°E)
Time: 14:50:55
(UTC+00:00)

Altair - Pass Details

Date: 09 December 2023
Orbit: 1501 x 1682 km, 47.2° (Epoch: 24 February)

Event Time Altitude Azimuth Distance (km) Brightness Sun altitude
Rises 20:51:09 0° 227° (SW) 4,932 9.9 -20.9°
Reaches altitude 10° 20:54:22 10° 230° (SW) 3,941 9.4 -20.1°
Maximum altitude 21:04:23 65° 309° (NW) 1,798 7.6 -17.8°
Drops below altitude 10° 21:14:10 10° 30° (NNE) 3,848 9.7 -15.6°
Sets 21:17:17 0° 33° (NNE) 4,810 10.2 -14.9°
